www.pogodaiklimat.ru

Погода и климат >> Архив погоды >> Иран >> Нехбандан


ПОГОДА в Нехбандане

  • Прогноз погоды в Нехбандане
  • Монитор погоды в Нехбандане

АРХИВ ПОГОДЫ в Нехбандане

Время (UTC), дата Ветер
(напр.,м/с)
 
Видим.   Явления Облачность Т
(С)
Тd
(С)
f
(%)
Тe
(С)
Тes
(С)
Комфортность P
(гПа)
Po
(гПа)
Тmin
(С)
Tmax
(С)
R
(мм)
R24
(мм)
S
(см)
06 13.09 штиль 0 20 км ясно +30.3 -11.1 6 +26 +43 жарко 1006.9 881.4
09 13.09 штиль 0 20 км ясно +34.0 -12.0 5 +29 +51 опасность
солнечного
удара
1004.5 879.6
12 13.09 ЮВ 5 20 км ясно +35.7 -13.5 4 +31 +33 жарко 1003.2 878.2
15 13.09 штиль 0 15 км ясно +30.2 -12.2 6 +26 +26 жарко 1004.7 878.6 +35.9
18 13.09 штиль 0 15 км ясно +26.3 -11.6 7 +23 +23 комфорт 1004.9 880.1
21 13.09 штиль 0 15 км ясно +20.6 -10.6 11 +19 +19 1004.7 879.5
00 14.09 штиль 0 15 км ясно +19.3 -10.4 12 +19 +19 1004.1 879.1
03 14.09 штиль 0 20 км ясно +20.2 -10.7 11 +19 +21 1007.0 880.7 +17.8
06 14.09 штиль 0 15 км ясно +29.6 -10.4 7 +26 +43 жарко 1007.1 881.9
09 14.09 ЮВ 5 20 км ясно +33.6 -12.4 5 +29 +37 жарко 1006.0 880.6
12 14.09 ЮВ 3 20 км ясно +35.1 -15.4 3 +30 +34 жарко 1004.5 879.3
15 14.09 штиль 0 15 км ясно +28.9 -11.9 6 +25 +25 комфорт 1007.0 880.5 +35.4
18 14.09 С 3 15 км ясно +24.3 -9.6 10 +22 +22 комфорт 1007.7 882.0
21 14.09 штиль 0 15 км ясно +19.9 -9.2 13 +19 +19 1007.9 882.1
00 15.09 З 2 15 км ясно +18.9 -8.7 15 +19 +19 1008.3 882.6
03 15.09 СЗ 2 20 км ясно +19.1 -8.1 15 +19 +21 1011.0 883.8 +16.3
06 15.09 ЮЗ 3 20 км ясно +28.8 -8.8 8 +25 +35 комфорт 1010.6 884.4
09 15.09 штиль 0 20 км ясно +34.7 -15.0 3 +30 +51 опасность
солнечного
удара
1008.2 882.6
12 15.09 СЗ 3 20 км ясно +36.6 -28.4 1 +31 +35 жарко 1006.5 881.2
15 15.09 штиль 0 15 км ясно +28.6 -8.1 8 +25 +25 комфорт 1008.6 881.6 +36.7
18 15.09 штиль 0 15 км ясно +24.3 -6.6 12 +22 +22 комфорт 1009.2 883.2
21 15.09 штиль 0 15 км ясно +20.3 -5.8 17 +20 +20 1008.2 882.7
00 16.09 штиль 0 15 км ясно +18.5 -4.6 20 +18 +18 1008.5 883.0
03 16.09 штиль 0 20 км ясно +20.0 -4.7 18 +19 +21 1011.2 884.1 +17.0
06 16.09 С 6 20 км ясно +29.0 -12.6 6 +25 +30 комфорт 1010.7 884.5
09 16.09 С 5 20 км ясно +33.6 -23.1 2 +29 +37 жарко 1008.0 882.2
12 16.09 СЗ 3 20 км ясно +35.7 -20.2 2 +31 +34 жарко 1006.2 880.7
15 16.09 С 3 15 км ясно +29.4 -10.5 7 +25 +25 комфорт 1007.4 880.9 +36.1
18 16.09 С 2 15 км ясно +24.4 -8.6 10 +22 +22 комфорт 1008.1 882.3
21 16.09 С 3 15 км ясно +24.7 -9.4 10 +22 +22 комфорт 1006.7 882.0
00 17.09 штиль 0 15 км ясно +21.9 -7.7 13 +20 +20 1005.9 881.2
03 17.09 штиль 0 20 км ясно +25.7 -8.4 10 +23 +24 комфорт 1007.5 882.1 +21.4
06 17.09 СВ 6 20 км ясно +30.3 -17.2 4 +26 +31 жарко 1008.7 883.0
09 17.09 СЗ 3 20 км ясно +34.3 -30.6 1 +29 +42 жарко 1005.5 881.0
12 17.09 штиль 0 20 км ясно +36.2 -29.2 1 +31 +37 жарко 1004.2 879.7
15 17.09 ЮВ 3 15 км ясно +30.0 -32.6 1 +25 +25 комфорт 1004.9 879.8 +36.8
18 17.09 штиль 0 15 км ясно +24.5 -28.9 2 +21 +21 комфорт 1006.2 880.8
21 17.09 штиль 0 15 км ясно +19.8 -19.7 6 +19 +19 1006.3 880.8
00 18.09 штиль 0 15 км ясно +17.5 -16.7 8 +18 +18 1005.9 880.4
03 18.09 штиль 0 20 км ясно +20.2 -16.4 7 +19 +21 1008.6 882.0 +15.8
06 18.09 СВ 5 20 км ясно +33.7 -26.4 1 +29 +35 жарко 1007.5 882.6
09 18.09 СВ 2 20 км ясно +36.6 -28.6 1 +31 +47 жарко 1007.0 881.8
12 18.09 В 2 20 км ясно +36.8 -27.9 1 +32 +36 жарко 1007.0 881.4
15 18.09 С 2 15 км ясно +31.5 -17.2 3 +27 +27 жарко 1008.3 882.1 +38.0
18 18.09 СВ 2 15 км ясно +30.2 -15.5 4 +26 +26 жарко 1006.7 883.0
21 18.09 СЗ 4 15 км ясно +29.7 -7.9 8 +26 +26 жарко 1004.7 881.8
00 19.09 СВ 3 15 км ясно +29.0 -10.8 7 +25 +25 комфорт 1004.8 881.7
03 19.09 С 3 20 км ясно +30.4 -10.8 6 +26 +27 жарко 1006.6 882.6 +24.2
06 19.09 СВ 5 20 км ясно +34.6 -15.8 3 +30 +36 жарко 1006.6 883.1
09 19.09 СВ 4 20 км ясно +37.4 -19.9 2 +32 +43 жарко 1004.7 881.8
12 19.09 штиль 0 20 км ясно +37.3 -16.4 3 +32 +38 жарко 1003.9 881.0
15 19.09 штиль 0 15 км ясно +32.5 -10.4 6 +28 +28 жарко 1005.1 881.5 +37.8
18 19.09 СВ 4 15 км ясно +31.0 -9.6 7 +27 +27 жарко 1004.8 881.7
21 19.09 С 5 15 км ясно +29.9 -7.8 8 +26 +26 жарко 1003.3 880.7
00 20.09 С 5 15 км ясно +29.0 -6.1 10 +26 +26 жарко 1003.4 880.7
03 20.09 штиль 0 20 км ясно +26.8 -4.9 12 +24 +25 комфорт 1006.4 882.0 +25.2

 

Местоположение метеостанции Нехбандан (Иран): широта 31.53 долгота 60.03 высота над уровнем моря 1211 м.

В архиве по умолчанию представлена погода в Нехбандане за последнюю неделю. Архивные данные за месяц целиком и за предыдущие месяцы, начиная с января 2011 года, Вы можете получить, выбрав интересующий диапазон дат из раскрывающегося списка и нажав кнопку "Ввод!".


*Определитесь, кто Вы:
робот инопланетянин человек

Внимание! Время в таблицах - всемирное. Для получения местного времени необходимо прибавить поправку, которая равна 3.5 ч.

Смотрите также архив погоды в соседних городах и на ближайших метеорологических станциях:

Погода в Заболе (Иран) (148 км)
Погода в Бирдженде (Иран) (168 км)
Погода в Захедане (Иран) (243 км)
Погода в Баме (Иран) (312 км)
Погода в Кермане (Иран) (325 км)
Погода в Фердоусе (Иран) (327 км)
Погода в Герате (Афганистан) (362 км)
Погода в Табасе (Иран) (371 км)
Погода в Нок-Кунди (Пакистан) (399 км)
Погода в Лашкаргахе (Афганистан) (411 км)

Пояснения к столбцам:

Ветер - указаны скорость ветра в м/с - средняя за 10 мин, порывы в срок и между сроками (в фигурных скобках) и направление, откуда дует ветер: С - северный, СВ - северо-восточный, В - восточный, ЮВ - юго-восточный, Ю - южный, ЮЗ - юго-западный, З - западный, СЗ - северо-западный.
Видимость - горизонтальная дальность видимости в метрах или километрах. При видимости от 1 до 10 км при отсутствии осадков обычно наблюдается дымка, при ухудшении видимости до 1 км и менее - туман. В сухую погоду видимость может ухудшаться дымом, пылью или мглою.
Явления - указаны атмосферные явления, наблюдавшиеся в срок или в последний час перед сроком; фигурными скобками обозначены явления, наблюдавшиеся между сроками (за 1-3 часа до срока); квадратными скобками обозначены град или гололедные отложения с указанием их диаметра в мм.
Облачность - указаны через наклонную черту общая и нижняя облачность в баллах и высота нижней границы облаков в метрах; квадратными скобками обозначены формы облаков: Ci - перистые, Cs - перисто-слоистые, Cc - перисто-кучевые, Ac - высококучевые, As - высокослоистые, Sc - слоисто-кучевые, Ns - слоисто-дождевые, Cu - кучевые, Cb - кучево-дождевые. Подробнее классификацию облаков см. в Атласе облаков (PDF).
T - Температура воздуха - температура, измеренная на высоте 2 м над землей.
Td - Температура точки росы - температура, при понижении до которой содержащийся в воздухе водяной пар достигнет насыщения.
f - Относительная влажность воздуха - влажноcть воздуха, измеренная на высоте 2 м над землей.
Te - Эффективная температура - температура, которую ощущает одетый по сезону человек в тени. Характеристика душности погоды. При расчете учитывается влияние влажности воздуха и скорости ветра на теплоощущения человека.
Tes - Эффективная температура на солнце - температура, которую ощущает человек, с поправкой на солнечный нагрев. Характеристика знойности погоды. Зависит от высоты солнца над горизонтом, облачности и скорости ветра. Ночью, в пасмурную погоду, а также при ветре 12 м/с и более поправка равна нулю.
P - Атмосферное давление - приведенное к уровню моря атмосферное давление.
Po - Атмосферное давление - измеренное на уровне метеостанции атмосферное давление.
Tmin - Минимальная температура - минимум температуры воздуха на высоте 2 м над землей.
Tmax - Максимальная температура - максимум температуры воздуха на высоте 2 м над землей.
R - Количество осадков - Количество выпавших осадков за период времени, мм. При наведении курсора мыши на число - период времени, за который выпало указанное количество осадков.
R24 - Количество осадков - Количество выпавших осадков за 24 часа, мм.
S - Снежный покров - Высота снежного покрова, см. При наведении курсора мыши на число - состояние снежного покрова и степень покрытия местности в баллах.